This demonstration page uses our WeatherBlox Daily Observations layout. Learn more.

Left ArrowRight Arrow

Hourly Observations for May 19, 2019

Temp ( °F °C ) Dew Point ( °F °C ) Humidity (%) Winds ( mph kmh ) Pressure ( in mb ) Visibility ( mi km ) Precip ( " mm )
12:15 am 00:15 Partly Cloudy 72 22 64 18 78 78 S 8 13 29.82 1010 10 16.0934 N/A
12:35 am 00:35 Partly Cloudy 72 22 64 18 78 78 SSE 7 11 29.81 1010 10 16.0934 N/A
12:56 am 00:56 Clear 72 22 64 18 78 78 SSE 9 15 29.8 1009 10 16.0934 N/A
1:15 am 01:15 Clear 72 22 66 19 83 83 S 9 15 29.79 1009 10 16.0934 N/A
1:35 am 01:35 Clear 72 22 66 19 83 83 S 8 13 29.79 1009 10 16.0934 N/A
1:55 am 01:55 Clear 72 22 66 19 83 83 S 8 13 29.79 1009 10 16.0934 N/A
2:15 am 02:15 Clear 72 22 66 19 83 83 S 10 17 29.79 1009 10 16.0934 N/A
2:36 am 02:36 Clear 70 21 66 19 88 88 S 8 13 29.8 1009 10 16.0934 N/A
2:55 am 02:55 Clear 70 21 66 19 88 88 S 9 15 29.8 1009 10 16.0934 N/A
3:15 am 03:15 Clear 70 21 66 19 88 88 S 7 11 29.8 1009 10 16.0934 N/A
3:35 am 03:35 Clear 68 20 66 19 94 94 S 7 11 29.79 1009 10 16.0934 N/A
3:55 am 03:55 Clear 68 20 66 19 94 94 S 9 15 29.79 1009 10 16.0934 N/A
4:15 am 04:15 Clear 68 20 66 19 94 94 S 9 15 29.78 1008 10 16.0934 N/A
4:35 am 04:35 Clear 68 20 66 19 94 94 S 8 13 29.77 1008 10 16.0934 N/A
4:56 am 04:56 Clear 68 20 66 19 94 94 S 9 15 29.77 1008 10 16.0934 N/A
5:15 am 05:15 Clear 68 20 66 19 94 94 S 10 17 29.77 1008 10 16.0934 N/A
5:35 am 05:35 Clear 68 20 66 19 94 94 S 12 19 29.77 1008 10 16.0934 N/A
5:55 am 05:55 Clear 68 20 66 19 94 94 S 9 15 29.76 1008 10 16.0934 N/A
6:15 am 06:15 Clear 68 20 66 19 94 94 S 10 17 29.76 1008 10 16.0934 N/A
6:35 am 06:35 Partly Cloudy 70 21 66 19 88 88 S 10 17 29.75 1007 10 16.0934 N/A
6:55 am 06:55 Mostly Cloudy 68 20 66 19 94 94 S 8 13 29.75 1007 10 16.0934 N/A
7:15 am 07:15 Mostly Cloudy 68 20 66 19 94 94 SSW 8 13 29.75 1007 10 16.0934 N/A
7:35 am 07:35 Partly Cloudy 68 20 66 19 94 94 S 8 13 29.76 1008 10 16.0934 N/A
7:55 am 07:55 Mostly Cloudy 70 21 66 19 88 88 S 10 17 29.76 1008 10 16.0934 N/A
8:15 am 08:15 Partly Cloudy 70 21 68 20 94 94 S 10 17 29.76 1008 10 16.0934 N/A
8:35 am 08:35 Sunny 70 21 68 20 94 94 S 12 19 29.75 1007 10 16.0934 N/A
8:55 am 08:55 Sunny 72 22 68 20 88 88 S 13 20 29.75 1008 10 16.0934 N/A
9:15 am 09:15 Partly Cloudy 72 22 68 20 88 88 SSW 13 20 29.75 1008 10 16.0934 N/A
9:35 am 09:35 Mostly Cloudy 70 21 66 19 88 88 SSW 16 26 29.78 1008 10 16.0934 N/A
9:55 am 09:55 Cloudy 70 21 68 20 94 94 S 12 19 29.78 1008 10 16.0934 N/A
10:15 am 10:15 Cloudy 70 21 68 20 94 94 S 9 15 29.79 1009 10 16.0934 N/A
10:35 am 10:35 Cloudy 72 22 68 20 88 88 SSW 9 15 29.77 1008 10 16.0934 N/A
10:55 am 10:55 Cloudy 72 22 68 20 88 88 SSW 16 26 29.77 1008 10 16.0934 N/A
11:15 am 11:15 Cloudy 72 22 68 20 88 88 SW 15 24 29.77 1008 10 16.0934 N/A
11:35 am 11:35 Cloudy 72 22 66 19 83 83 SW 17 28 29.78 1009 10 16.0934 N/A
11:55 am 11:55 Cloudy 70 21 66 19 88 88 SW 17 28 29.79 1009 10 16.0934 N/A
12:16 pm 12:16 Cloudy 70 21 66 19 88 88 WSW 15 24 29.78 1008 10 16.0934 N/A
12:35 pm 12:35 Cloudy 70 21 66 19 88 88 WSW 10 17 29.77 1008 10 16.0934 N/A
12:55 pm 12:55 Cloudy 66 19 66 19 100 100 WSW 13 20 29.77 1008 4 6.43736 N/A
1:15 pm 13:15 Cloudy 64 18 64 18 100 100 SW 9 15 29.79 1009 0.5 0.80467 N/A
1:35 pm 13:35 Cloudy 64 18 64 18 100 100 WSW 10 17 29.79 1009 0.75 1.207005 N/A
1:55 pm 13:55 Cloudy 63 17 63 17 100 100 W 14 22 29.81 1009 4 6.43736 N/A
2:15 pm 14:15 Cloudy 63 17 63 17 100 100 SW 9 15 29.79 1009 3 4.82802 N/A
2:35 pm 14:35 Cloudy 63 17 63 17 100 100 SW 12 19 29.8 1009 7 11.26538 N/A
2:56 pm 14:56 Cloudy 63 17 63 17 100 100 S 8 13 29.79 1009 4 6.43736 N/A
3:15 pm 15:15 Cloudy 63 17 63 17 100 100 S 9 15 29.78 1008 7 11.26538 N/A
3:35 pm 15:35 Mostly Cloudy 64 18 64 18 100 100 SSW 13 20 29.77 1008 10 16.0934 N/A
3:55 pm 15:55 Mostly Cloudy 66 19 66 19 100 100 SSW 15 24 29.77 1008 10 16.0934 N/A
4:15 pm 16:15 Mostly Cloudy 68 20 68 20 100 100 SSW 13 20 29.76 1008 10 16.0934 N/A
4:35 pm 16:35 Partly Cloudy 70 21 68 20 94 94 SSW 14 22 29.76 1008 10 16.0934 N/A
4:55 pm 16:55 Mostly Cloudy 70 21 70 21 100 100 SSW 13 20 29.76 1008 10 16.0934 N/A
5:15 pm 17:15 Cloudy 70 21 68 20 94 94 SSW 12 19 29.75 1007 10 16.0934 N/A
5:35 pm 17:35 Cloudy 70 21 70 21 100 100 SSW 10 17 29.75 1007 10 16.0934 N/A
5:55 pm 17:55 Mostly Cloudy 72 22 70 21 94 94 SSW 12 19 29.73 1007 10 16.0934 N/A
6:15 pm 18:15 Cloudy 70 21 70 21 100 100 S 12 19 29.74 1007 10 16.0934 N/A
6:35 pm 18:35 Mostly Cloudy 70 21 70 21 100 100 SSW 9 15 29.74 1007 10 16.0934 N/A
6:55 pm 18:55 Mostly Cloudy 72 22 70 21 94 94 S 13 20 29.71 1006 10 16.0934 N/A
7:15 pm 19:15 Mostly Cloudy 72 22 70 21 94 94 SSW 10 17 29.72 1007 10 16.0934 N/A
7:35 pm 19:35 Cloudy 63 17 63 17 100 100 SW 12 19 29.77 1008 1.75 2.816345 N/A
7:55 pm 19:55 Cloudy 64 18 64 18 100 100 SW 13 20 29.76 1008 10 16.0934 N/A
8:15 pm 20:15 Mostly Cloudy 64 18 64 18 100 100 WSW 9 15 29.76 1008 10 16.0934 N/A
8:35 pm 20:35 Partly Cloudy 64 18 64 18 100 100 WSW 9 15 29.77 1008 10 16.0934 N/A
8:55 pm 20:55 Sunny 64 18 64 18 100 100 WSW 9 15 29.78 1009 10 16.0934 N/A
9:15 pm 21:15 Clear 63 17 63 17 100 100 SW 10 17 29.8 1009 10 16.0934 N/A
9:55 pm 21:55 Clear 63 17 63 17 100 100 SW 8 13 29.81 1009 10 16.0934 N/A
10:15 pm 22:15 Clear 63 17 63 17 100 100 SW 12 19 29.82 1010 10 16.0934 N/A
10:36 pm 22:36 Clear 61 16 61 16 100 100 SW 8 13 29.83 1010 10 16.0934 N/A
10:55 pm 22:55 Clear 61 16 61 16 100 100 SSW 8 13 29.83 1010 10 16.0934 N/A
11:15 pm 23:15 Clear 61 16 61 16 100 100 SW 10 17 29.83 1010 10 16.0934 N/A
11:35 pm 23:35 Clear 63 17 63 17 100 100 WSW 10 17 29.84 1010 10 16.0934 N/A
11:55 pm 23:55 Clear 61 16 61 16 100 100 SW 8 13 29.84 1011 10 16.0934 N/A

Powered by AerisWeather